Powrót do katalogu

SDA_1679

AktywnyNaukaPO
NORAD 65989·PAYLOAD·🇺🇸 United States

Wystrzelony Oct 15, 2025 z Vandenberg Space Force Base

Loading…

Następne Przeloty (najbliższe 24 godziny)

TLE

ŚwieżeSource: Space-Track

Epoka: Sep 14, 2026, 14:12 UTC

1 65989U 25230R   26257.59219012  .00000095  00000-0  74163-4 0  9999
2 65989  81.3022 128.7558 0003109 342.1391  17.9657 13.84860972 46190

Śledź SDA_1679 w czasie rzeczywistym z AllMySat

Download on the App Store